[[{"header":{"parameterUnit":"m.s-1","parameterCategory":1,"la1":30.2991,"la2":30.254,"lo1":-89.0895,"lo2":-89.0444,"dy":0.0017,"dx":0.0017,"nx":28,"ny":28,"refTime":"2023-10-12T09:00:00:Z","depth":0,"parameterNumber":2,"parameterNumberName":"U-component_of_WINDS"},"data":[0,0,0,0,0,0,0,0,0,0,0,0,0,0,0,0,0,0,0,0,0,0,0,0,0,0,0,0,0,0,0,0,0,0,0,0,0,0,0,0,0,0,0,0,0,0,0,0,0,0,0,0,0,0,0,0,0,0,1.341,1.3409,0,1.337,1.3369,1.3369,1.3342,1.3341,1.3341,1.3341,1.3299,1.3298,1.3297,0,0,0,0,0,0,0,0,0,0,0,0,0,1.3463,1.3462,1.341,1.3409,1.3409,1.337,1.3369,1.3369,1.3342,1.3341,1.3341,1.3341,1.3299,1.3298,1.3297,0,0,0,0,0,0,0,0,0,0,0,0,0,1.3433,1.3462,1.341,1.3391,1.3389,1.337,1.3369,1.3368,1.3342,1.3341,1.3341,1.3341,1.3299,1.3298,1.3296,1.3293,0,0,1.3292,1.3291,0,0,0,0,0,0,0,0,1.3435,1.3431,1.3394,1.3392,1.339,1.336,1.3372,1.3343,1.3342,1.3359,1.3341,1.3341,1.3319,1.3316,1.3309,1.3291,1.3289,1.3292,1.3291,1.329,1.329,0,0,0,0,0,0,0,1.3437,1.3433,1.3394,1.3394,1.3391,1.3384,1.3379,1.3367,1.3341,1.3358,1.3356,1.3351,1.3318,1.3311,1.3308,1.3289,1.3292,1.3291,1.329,1.3289,1.3267,1.3267,0,0,0,0,0,0,1.3442,1.3435,1.3395,1.3393,1.3412,1.3383,1.3378,1.337,1.3341,1.3337,1.3352,1.335,1.3313,1.331,1.3306,1.3301,1.329,1.3289,1.3288,1.3267,1.3267,1.3267,0,0,0,0,0,0,1.3443,1.3439,1.3397,1.3413,1.3407,1.3383,1.3374,1.3369,1.3362,1.3337,1.3332,1.3349,1.3313,1.3308,1.3297,1.3299,1.3288,1.3287,1.3266,1.3267,1.3267,1.3289,0,0,0,0,0,0,1.3445,1.3439,1.3438,1.3413,1.3406,1.3388,1.3374,1.3369,1.336,1.3357,1.3333,1.3329,1.3312,1.3299,1.3295,1.3297,1.3286,1.3266,1.3266,1.3267,1.3288,1.3291,1.3292,0,0,0,0,0,1.3447,1.3445,1.3438,1.3433,1.3404,1.3388,1.3384,1.3366,1.336,1.3358,1.3342,1.3329,1.33,1.3298,1.3294,1.3295,1.3266,1.3266,1.3267,1.3287,1.329,1.3292,0,0,0,0,0,0,1.347,1.3442,1.3433,1.3424,1.3409,1.3384,1.3381,1.3369,1.3355,1.3354,1.3331,1.3326,1.3317,1.3305,1.3304,1.329,1.3281,1.3281,1.3298,1.3301,1.3303,1.3305,1.3285,0,0,0,0,0,1.3475,1.3464,1.344,1.3434,1.3427,1.3405,1.3398,1.3385,1.3368,1.3362,1.3345,1.3329,1.3316,1.3308,1.3295,1.3287,1.3281,1.3286,1.3288,1.3289,1.3289,1.3284,1.3286,1.3269,1.3269,1.3269,0,0,1.3483,1.3466,1.3461,1.3438,1.3425,1.3415,1.34,1.339,1.3382,1.336,1.3348,1.3335,1.3316,1.3307,1.3302,1.3296,1.3293,1.329,1.3292,1.329,1.3285,1.3287,1.3288,1.3269,1.3269,1.3269,0,0,1.3492,1.3479,1.3472,1.346,1.344,1.3426,1.3425,1.3402,1.3393,1.3381,1.3364,1.3355,1.3333,1.332,1.3311,1.3317,1.3304,1.3313,1.3323,1.3319,1.332,1.3321,1.3323,1.3324,1.3313,1.3313,1.3313,0,1.3505,1.3488,1.347,1.3461,1.3452,1.3433,1.3426,1.3415,1.3392,1.3386,1.338,1.3353,1.3339,1.3326,1.3328,1.3321,1.3319,1.3315,1.3322,1.3323,1.3323,1.3325,1.3326,1.3315,1.3314,1.3314,1.3314,0,1.3505,1.3494,1.3491,1.347,1.3461,1.3453,1.3433,1.3426,1.3415,1.3401,1.3389,1.3372,1.3355,1.3351,1.334,1.3337,1.3335,1.3326,1.3316,1.3326,1.3327,1.3328,1.3316,1.3316,1.3315,1.3315,0,0,1.3526,1.3496,1.3495,1.3486,1.3464,1.3455,1.3447,1.3431,1.3424,1.341,1.3402,1.3385,1.3377,1.3366,1.3354,1.335,1.3356,1.3342,1.3341,1.3344,1.3352,1.3358,1.3359,1.3348,1.3348,1.3348,1.3353,0,1.3532,1.3515,1.3499,1.3489,1.3479,1.3461,1.3454,1.344,1.3427,1.3417,1.3403,1.3391,1.3382,1.3375,1.3371,1.3356,1.3357,1.3356,1.334,1.334,1.3344,1.3359,1.3365,1.3371,1.3354,1.3354,1.3354,0,1.3535,1.3522,1.3511,1.349,1.3485,1.3479,1.3463,1.3454,1.3438,1.3429,1.3418,1.3405,1.3395,1.3388,1.3374,1.3373,1.3367,1.3358,1.3358,1.3355,1.3347,1.3356,1.3372,1.3373,1.3354,1.3354,1.3354,0,1.3552,1.3531,1.3522,1.3514,1.349,1.3486,1.3476,1.3459,1.3451,1.3437,1.3432,1.3417,1.3409,1.3398,1.3382,1.3378,1.337,1.3361,1.3362,1.3362,1.336,1.336,1.3374,1.3357,1.3357,1.3357,1.3357,0,1.3559,1.3552,1.3529,1.3523,1.3515,1.3497,1.349,1.3478,1.3464,1.3456,1.344,1.3432,1.3411,1.3401,1.3388,1.3379,1.3376,1.3368,1.3365,1.3369,1.337,1.3363,1.3362,1.3357,1.3357,1.3357,1.3357,0,1.3575,1.3559,1.3547,1.3526,1.352,1.3516,1.3497,1.3491,1.3479,1.3468,1.3465,1.3445,1.3432,1.3415,1.3397,1.3388,1.3381,1.3375,1.3386,1.3384,1.3386,1.3385,1.3395,1.3395,1.3379,1.338,1.338,0,1.358,1.3575,1.3553,1.3547,1.3537,1.3527,1.3518,1.3501,1.3493,1.3474,1.347,1.3457,1.3445,1.3426,1.341,1.3396,1.339,1.3394,1.3388,1.3392,1.3389,1.3389,1.3389,1.3396,1.3396,1.3396,1.3396,0,1.3591,1.3583,1.3572,1.3558,1.3549,1.3537,1.3524,1.352,1.35,1.3492,1.3479,1.347,1.3452,1.3439,1.3423,1.3412,1.3401,1.3399,1.3398,1.3402,1.3408,1.3404,1.3389,1.3398,1.3398,1.3398,1.3398,1.3398,1.3601,1.3595,1.358,1.3568,1.3557,1.3545,1.3539,1.3526,1.3515,1.3499,1.349,1.3477,1.3462,1.344,1.343,1.342,1.3416,1.3415,1.3415,1.3414,1.3416,1.3411,1.3418,1.3418,1.3417,1.3417,1.3417,0,1.361,1.3599,1.3589,1.3572,1.3563,1.3554,1.354,1.3532,1.3522,1.3509,1.3498,1.3483,1.3471,1.3454,1.344,1.3436,1.343,1.3433,1.3432,1.343,1.3421,1.3422,1.3437,1.3437,1.3437,1.3437,1.3437,1.3437,1.3614,1.3604,1.3595,1.358,1.3569,1.3557,1.355,1.354,1.3529,1.3514,1.3504,1.3493,1.3479,1.3464,1.3452,1.3448,1.3443,1.3447,1.3441,1.3432,1.3431,1.3429,1.343,1.3446,1.3446,1.345,1.345,1.3451]},{"header":{"parameterUnit":"m.s-1","parameterCategory":1,"la1":30.2991,"la2":30.254,"lo1":-89.0895,"lo2":-89.0444,"dy":0.0017,"dx":0.0017,"nx":28,"ny":28,"refTime":"2023-10-12T09:00:00:Z","depth":0,"parameterNumber":3,"parameterNumberName":"V-component_of_WINDS"},"data":[0,0,0,0,0,0,0,0,0,0,0,0,0,0,0,0,0,0,0,0,0,0,0,0,0,0,0,0,0,0,0,0,0,0,0,0,0,0,0,0,0,0,0,0,0,0,0,0,0,0,0,0,0,0,0,0,0,0,-5.8249,-5.825,0,-5.8379,-5.8381,-5.8382,-5.8322,-5.8319,-5.8316,-5.8312,-5.8441,-5.8447,-5.8453,0,0,0,0,0,0,0,0,0,0,0,0,0,-5.7942,-5.7948,-5.8249,-5.825,-5.8252,-5.8379,-5.8381,-5.8383,-5.8323,-5.8319,-5.8315,-5.8311,-5.8438,-5.8446,-5.8454,0,0,0,0,0,0,0,0,0,0,0,0,0,-5.8074,-5.795,-5.8248,-5.8237,-5.8238,-5.8379,-5.8381,-5.8383,-5.8324,-5.8319,-5.8314,-5.8309,-5.8436,-5.8445,-5.8455,-5.8613,0,0,-5.8484,-5.8489,0,0,0,0,0,0,0,0,-5.8067,-5.8086,-5.8237,-5.8238,-5.8239,-5.833,-5.832,-5.846,-5.8325,-5.8291,-5.8312,-5.8307,-5.8407,-5.8419,-5.8454,-5.8619,-5.8624,-5.8485,-5.8491,-5.8495,-5.8498,0,0,0,0,0,0,0,-5.8058,-5.808,-5.83,-5.824,-5.8241,-5.8224,-5.8238,-5.8346,-5.8375,-5.8293,-5.8289,-5.8306,-5.8407,-5.8445,-5.8457,-5.8626,-5.8485,-5.8494,-5.85,-5.8503,-5.8928,-5.8933,0,0,0,0,0,0,-5.805,-5.8072,-5.8296,-5.8304,-5.8139,-5.8234,-5.8249,-5.8305,-5.8373,-5.8379,-5.831,-5.8303,-5.8431,-5.8445,-5.8461,-5.8651,-5.8495,-5.8504,-5.851,-5.8922,-5.8929,-5.8935,0,0,0,0,0,0,-5.8043,-5.807,-5.8291,-5.8187,-5.8214,-5.8245,-5.8308,-5.8311,-5.8349,-5.8386,-5.839,-5.8344,-5.8427,-5.8447,-5.8576,-5.8655,-5.8509,-5.8518,-5.8916,-5.8924,-5.8932,-5.9032,0,0,0,0,0,0,-5.8035,-5.8068,-5.813,-5.8189,-5.822,-5.8406,-5.8313,-5.8317,-5.8366,-5.8358,-5.8419,-5.8425,-5.8425,-5.8562,-5.8586,-5.8665,-5.8525,-5.8909,-5.8919,-5.8929,-5.9022,-5.9043,-5.9061,0,0,0,0,0,-5.8024,-5.8151,-5.8133,-5.816,-5.8298,-5.841,-5.8427,-5.8427,-5.8373,-5.8434,-5.8458,-5.8423,-5.8642,-5.8576,-5.8602,-5.8686,-5.8904,-5.8916,-5.8928,-5.9013,-5.9039,-5.906,0,0,0,0,0,0,-5.8097,-5.8159,-5.8139,-5.829,-5.8346,-5.84,-5.8477,-5.8454,-5.8525,-5.8514,-5.8509,-5.8523,-5.8657,-5.8684,-5.8608,-5.8842,-5.8764,-5.8783,-5.882,-5.8845,-5.8863,-5.8854,-5.8533,0,0,0,0,0,-5.8132,-5.822,-5.8267,-5.8395,-5.8425,-5.8447,-5.8495,-5.8491,-5.8547,-5.857,-5.8603,-5.8658,-5.874,-5.8793,-5.887,-5.9025,-5.9038,-5.9096,-5.9115,-5.9131,-5.9147,-5.9232,-5.9258,-5.8975,-5.8975,-5.8975,0,0,-5.8202,-5.8246,-5.8302,-5.8411,-5.8454,-5.8544,-5.8466,-5.8565,-5.8631,-5.8584,-5.8709,-5.8736,-5.8796,-5.894,-5.9004,-5.8966,-5.9228,-5.9147,-5.9159,-5.9166,-5.9247,-5.9274,-5.9298,-5.8983,-5.8982,-5.8981,0,0,-5.8377,-5.8419,-5.8531,-5.8576,-5.8643,-5.8657,-5.8684,-5.8743,-5.8759,-5.8885,-5.8852,-5.893,-5.907,-5.9115,-5.9156,-5.9351,-5.9321,-5.9375,-5.9476,-5.9559,-5.9582,-5.9601,-5.9671,-5.9696,-5.9391,-5.9391,-5.9391,0,-5.8455,-5.8592,-5.8591,-5.8693,-5.8743,-5.8707,-5.882,-5.8863,-5.895,-5.8984,-5.8941,-5.9118,-5.9156,-5.931,-5.9357,-5.9392,-5.9422,-5.9368,-5.9579,-5.9599,-5.9617,-5.9684,-5.971,-5.9397,-5.9397,-5.9396,-5.9396,0,-5.8686,-5.8781,-5.8863,-5.8952,-5.901,-5.9117,-5.9131,-5.919,-5.9181,-5.9199,-5.9327,-5.9372,-5.9458,-5.9494,-5.9484,-5.9647,-5.9622,-5.9579,-5.9501,-5.965,-5.9713,-5.9738,-5.9407,-5.9404,-5.9402,-5.9401,0,0,-5.891,-5.8998,-5.9028,-5.9069,-5.914,-5.9213,-5.9318,-5.9404,-5.9455,-5.9517,-5.9605,-5.9725,-5.9687,-5.9734,-5.9729,-5.9802,-5.9954,-5.975,-5.9751,-5.9787,-6.0136,-6.0169,-6.0199,-5.9934,-5.9939,-5.9943,-6.0132,0,-5.909,-5.9277,-5.928,-5.9451,-5.9539,-5.9507,-5.9598,-5.9651,-5.9671,-5.9748,-5.9768,-5.9855,-5.9797,-5.9825,-5.9896,-5.992,-6.0024,-5.9907,-6.0015,-6.0019,-6.0002,-6.0231,-6.0265,-6.0441,-6.0156,-6.016,-6.0163,0,-5.9326,-5.9398,-5.9579,-5.9639,-5.9676,-5.9759,-5.9839,-5.9913,-5.9972,-5.9981,-6.0036,-6.002,-6.0126,-6.0045,-6.0191,-6.0111,-6.0156,-6.0175,-6.0181,-6.0192,-6.0101,-6.0248,-6.0497,-6.0524,-6.0201,-6.0198,-6.0196,0,-5.9473,-5.9615,-5.9741,-5.9777,-5.985,-5.9909,-5.9942,-5.9997,-6.0049,-6.0118,-6.0152,-6.0232,-6.0276,-6.0338,-6.0345,-6.0285,-6.0492,-6.0411,-6.0502,-6.0502,-6.0547,-6.0545,-6.0808,-6.0575,-6.0575,-6.0574,-6.0574,0,-5.9674,-5.9786,-5.9809,-5.9887,-6.0011,-6.0013,-6.0135,-6.0163,-6.0213,-6.0294,-6.027,-6.0347,-6.0351,-6.043,-6.0435,-6.0556,-6.0575,-6.0585,-6.0586,-6.0588,-6.0587,-6.0617,-6.0606,-6.0581,-6.058,-6.0578,-6.0577,0,-5.9859,-5.9879,-6.0015,-6.0074,-6.0092,-6.0181,-6.0231,-6.0305,-6.0323,-6.0427,-6.0451,-6.0479,-6.0571,-6.0584,-6.069,-6.0693,-6.0839,-6.0826,-6.082,-6.0818,-6.0909,-6.0901,-6.1202,-6.1241,-6.0982,-6.0985,-6.0987,0,-5.9987,-6.0073,-6.0142,-6.0197,-6.0234,-6.0321,-6.0375,-6.038,-6.0437,-6.0513,-6.0577,-6.0667,-6.0739,-6.0887,-6.0916,-6.0997,-6.0986,-6.1086,-6.0998,-6.0998,-6.0989,-6.0984,-6.0993,-6.1103,-6.1106,-6.1108,-6.111,0,-6.0212,-6.0218,-6.0298,-6.0383,-6.0449,-6.0514,-6.0576,-6.0622,-6.0635,-6.07,-6.0795,-6.0851,-6.0961,-6.105,-6.1131,-6.1163,-6.1139,-6.1138,-6.1163,-6.1167,-6.116,-6.1166,-6.0867,-6.1131,-6.1128,-6.1127,-6.1126,-6.1125,-6.0373,-6.0448,-6.051,-6.06,-6.0648,-6.0707,-6.078,-6.0808,-6.0888,-6.098,-6.0978,-6.1082,-6.1139,-6.1246,-6.1284,-6.1365,-6.1332,-6.1369,-6.1378,-6.1388,-6.1397,-6.1148,-6.1379,-6.1379,-6.1378,-6.1378,-6.1377,0,-6.0598,-6.0636,-6.0719,-6.0808,-6.088,-6.0853,-6.092,-6.0981,-6.1074,-6.1131,-6.1203,-6.1313,-6.14,-6.1436,-6.1521,-6.1579,-6.157,-6.1601,-6.1597,-6.1605,-6.1421,-6.1391,-6.1607,-6.1607,-6.1607,-6.1607,-6.1607,-6.1607,-6.0723,-6.085,-6.0863,-6.1013,-6.105,-6.1154,-6.1195,-6.1249,-6.1295,-6.1419,-6.1492,-6.1516,-6.1565,-6.1654,-6.1732,-6.174,-6.1773,-6.181,-6.1813,-6.1641,-6.1618,-6.1595,-6.1567,-6.1816,-6.1817,-6.199,-6.1992,-6.1993]}]]